Location: Gwatt
(46.7204°N, 7.6223°E)
Time: 07:02:27
(UTC+00:00)

Cosmos 1092 Rocket - Pass Details

Date: 18 September 2020
Orbit: 954 x 995 km, 82.9° (Epoch: 23 October)

Event Time Altitude Azimuth Distance (km) Brightness Sun altitude
Rises 19:49:06 0° 351° (N) 3,645 7.5 -22.9°
Reaches altitude 10° 19:51:36 10° 351° (N) 2,696 6.8 -23.2°
Maximum altitude 19:57:47 89° 269° (W) 967 3.9 -24.2°
Enters shadow 20:00:16 39° 174° (S) 1,404 4.5 -24.5°
